User: anonymous   Login
Location: Bittelbronn
(48.4454°N, 8.5870°E)
Time: 16:24:28
(UTC+00:00)
Language:

Cosmos 2181 Rocket - Orbit

View from above orbital plane
View from above orbital plane
View from above satellite
View from above satellite

Ground track
Ground track

The orbit data is extracted from the following two-line orbital elements,

1 21903U 92012B   24202.16206935  .00000095  00000-0  82709-4 0  9995
2 21903  82.9351  65.0772 0044044  74.0665  41.2798 13.74659635623366
Epoch (UTC): 20 July 2024 03:53:22
Eccentricity: 0.0044044
inclination: 82.9351°
perigee height: 950 km
apogee height: 1015 km
right ascension of ascending node: 65.0772°
argument of perigee: 74.0665°
revolutions per day: 13.74659635
mean anomaly at epoch: 41.2798°
orbit number at epoch: 62336

The dashed part of the orbit path shows where the satellite is in the earth's shadow,  

DLR